,,,PA_Meas_PMT16A,,PR_Meas_QMR101_102,,RH_Meas_QMH101,,SR_Meas_QMS101,,TA_Meas_QMH101,,GenWind,,GenWind,
date,time,status,PA,status,PR,status,RH,status,SR,status,TA,status,DirAvg,status,SpdAvg,
2014-10-08, 00:00:04,VALID,1009.57,VALID,0,INVALID,124.582,VALID,0.112112,VALID,24.6684,VALID,144,VALID,0,
2014-10-08, 00:01:04,VALID,1009.55,VALID,0,INVALID,124.323,VALID,0.112112,VALID,24.6276,VALID,144,VALID,0,
2014-10-08, 00:02:04,VALID,1009.53,VALID,0,INVALID,126.244,VALID,0.112112,VALID,24.6276,VALID,144,VALID,0,
2014-10-08, 00:03:04,VALID,1009.54,VALID,0,INVALID,130.072,VALID,0.112112,VALID,24.6276,VALID,144,VALID,0,
2014-10-08, 00:04:04,VALID,1009.53,VALID,0,INVALID,132.917,VALID,0.112112,VALID,24.6471,VALID,144,VALID,0,
2014-10-08, 00:05:04,VALID,1009.55,VALID,0,INVALID,134.122,VALID,0.112112,VALID,24.6666,VALID,144,VALID,0,
2014-10-08, 00:06:04,VALID,1009.55,VALID,0,INVALID,135.037,VALID,0.112112,VALID,24.686,VALID,144,VALID,0,
2014-10-08, 00:07:04,VALID,1009.53,VALID,0,INVALID,135.456,VALID,0,VALID,24.725,VALID,144,VALID,0,
2014-10-08, 00:08:04,VALID,1009.52,VALID,0,INVALID,133.801,VALID,0.112112,VALID,24.7445,VALID,144,VALID,0,
2014-10-08, 00:09:04,VALID,1009.48,VALID,0,INVALID,133.199,VALID,0.112112,VALID,24.764,VALID,144,VALID,0,
2014-10-08, 00:10:04,VALID,1009.49,VALID,0,INVALID,132.269,VALID,0.112112,VALID,24.7445,VALID,144,VALID,0,
2014-10-08, 00:11:04,VALID,1009.48,VALID,0,INVALID,130.309,VALID,0.112112,VALID,24.725,VALID,144,VALID,0,
2014-10-08, 00:12:04,VALID,1009.47,VALID,0,INVALID,126.618,VALID,0.112112,VALID,24.686,VALID,144,VALID,0,
2014-10-08, 00:13:04,VALID,1009.45,VALID,0,INVALID,124.612,VALID,0.112112,VALID,24.6471,VALID,144,VALID,0,
2014-10-08, 00:14:04,VALID,1009.46,VALID,0,INVALID,124.063,VALID,0.112112,VALID,24.6081,VALID,144,VALID,0,
2014-10-08, 00:15:04,VALID,1009.43,VALID,0,INVALID,123.972,VALID,0.112112,VALID,24.6081,VALID,144,VALID,0,
2014-10-08, 00:16:04,VALID,1009.42,VALID,0,INVALID,124.376,VALID,0.112112,VALID,24.5886,VALID,144,VALID,0,
2014-10-08, 00:17:04,VALID,1009.4,VALID,0,INVALID,124.414,VALID,0.112112,VALID,24.5886,VALID,144,VALID,0,
2014-10-08, 00:18:04,VALID,1009.39,VALID,0,INVALID,125.276,VALID,0.112112,VALID,24.5691,VALID,144,VALID,0,
2014-10-08, 00:19:04,VALID,1009.35,VALID,0,INVALID,125.299,VALID,0,VALID,24.5691,VALID,144,VALID,0,
2014-10-08, 00:20:04,VALID,1009.31,VALID,0,INVALID,124.986,VALID,0.112112,VALID,24.5301,VALID,144,VALID,0,
2014-10-08, 00:21:04,VALID,1009.31,VALID,0,INVALID,125.482,VALID,0.112112,VALID,24.5301,VALID,144,VALID,0,
2014-10-08, 00:22:04,VALID,1009.3,VALID,0,INVALID,125.619,VALID,0.112112,VALID,24.5106,VALID,144,VALID,0,
2014-10-08, 00:23:04,VALID,1009.27,VALID,0,INVALID,126.138,VALID,0.112112,VALID,24.4911,VALID,144,VALID,0,
2014-10-08, 00:24:04,VALID,1009.25,VALID,0,INVALID,127.358,VALID,0.112112,VALID,24.4911,VALID,144,VALID,0,
2014-10-08, 00:25:04,VALID,1009.25,VALID,0,INVALID,130.164,VALID,0.112112,VALID,24.5106,VALID,144,VALID,0,
2014-10-08, 00:26:04,VALID,1009.24,VALID,0,INVALID,131.727,VALID,0.112112,VALID,24.5106,VALID,144,VALID,0,
2014-10-08, 00:27:04,VALID,1009.22,VALID,0,INVALID,132.17,VALID,0.112112,VALID,24.5301,VALID,144,VALID,0,
2014-10-08, 00:28:04,VALID,1009.21,VALID,0,INVALID,131.354,VALID,0.112112,VALID,24.5125,VALID,144,VALID,0,
2014-10-08, 00:29:04,VALID,1009.18,VALID,0,INVALID,130.301,VALID,0.112112,VALID,24.454,VALID,144,VALID,0,
2014-10-08, 00:30:04,VALID,1009.18,VALID,0,INVALID,130.141,VALID,0.112112,VALID,24.4327,VALID,144,VALID,0,
2014-10-08, 00:31:04,VALID,1009.19,VALID,0,INVALID,131.018,VALID,0.112112,VALID,24.4327,VALID,144,VALID,0,
2014-10-08, 00:32:04,VALID,1009.16,VALID,0,INVALID,132.414,VALID,0.112112,VALID,24.4132,VALID,144,VALID,0,
2014-10-08, 00:33:04,VALID,1009.14,VALID,0,INVALID,133.405,VALID,0.112112,VALID,24.4327,VALID,144,VALID,0,
2014-10-08, 00:34:04,VALID,1009.13,VALID,0,INVALID,133.641,VALID,0.112112,VALID,24.4522,VALID,144,VALID,0,
2014-10-08, 00:35:04,VALID,1009.13,VALID,0,INVALID,133.435,VALID,0.112112,VALID,24.4327,VALID,144,VALID,0,
2014-10-08, 00:36:04,VALID,1009.09,VALID,0,INVALID,133.184,VALID,0.112112,VALID,24.3937,VALID,144,VALID,0,
2014-10-08, 00:37:04,VALID,1009.09,VALID,0,INVALID,132.841,VALID,0.112112,VALID,24.3742,VALID,144,VALID,0,
2014-10-08, 00:38:04,VALID,1009.07,VALID,0,INVALID,132.574,VALID,0.112112,VALID,24.3547,VALID,144,VALID,0,
2014-10-08, 00:39:04,VALID,1009.08,VALID,0,INVALID,132.635,VALID,0.112112,VALID,24.3352,VALID,144,VALID,0,
2014-10-08, 00:40:04,VALID,1009.04,VALID,0,INVALID,132.902,VALID,0.112112,VALID,24.2944,VALID,144,VALID,0,
2014-10-08, 00:41:04,VALID,1009.02,VALID,0,INVALID,133.001,VALID,0.112112,VALID,24.2963,VALID,144,VALID,0,
2014-10-08, 00:42:04,VALID,1008.99,VALID,0,INVALID,133.245,VALID,0.112112,VALID,24.2963,VALID,144,VALID,0,
2014-10-08, 00:43:04,VALID,1008.99,VALID,0,INVALID,133.519,VALID,0,VALID,24.2786,VALID,144,VALID,0,
2014-10-08, 00:44:04,VALID,1008.97,VALID,0,INVALID,133.733,VALID,0,VALID,24.2981,VALID,144,VALID,0,
2014-10-08, 00:45:04,VALID,1008.98,VALID,0,INVALID,133.885,VALID,0,VALID,24.2981,VALID,144,VALID,0,
2014-10-08, 00:46:04,VALID,1008.95,VALID,0,INVALID,134.076,VALID,0,VALID,24.2786,VALID,144,VALID,0,
2014-10-08, 00:47:04,VALID,1008.95,VALID,0,INVALID,134.061,VALID,0,VALID,24.2786,VALID,144,VALID,0,
2014-10-08, 00:48:04,VALID,1008.95,VALID,0,INVALID,134.091,VALID,0,VALID,24.2591,VALID,144,VALID,0,
2014-10-08, 00:49:04,VALID,1008.93,VALID,0,INVALID,134.053,VALID,0,VALID,24.2396,VALID,144,VALID,0,
2014-10-08, 00:50:04,VALID,1008.92,VALID,0,INVALID,134.19,VALID,0,VALID,24.2396,VALID,144,VALID,0,
2014-10-08, 00:51:04,VALID,1008.86,VALID,0,INVALID,134.389,VALID,0,VALID,24.2396,VALID,144,VALID,0,
2014-10-08, 00:52:04,VALID,1008.89,VALID,0,INVALID,134.404,VALID,0,VALID,24.2396,VALID,144,VALID,0,
2014-10-08, 00:53:04,VALID,1008.87,VALID,0,INVALID,134.427,VALID,0,VALID,24.2202,VALID,144,VALID,0,
2014-10-08, 00:54:04,VALID,1008.88,VALID,0,INVALID,134.45,VALID,0,VALID,24.2202,VALID,144,VALID,0,
2014-10-08, 00:55:04,VALID,1008.84,VALID,0,INVALID,134.427,VALID,0,VALID,24.1812,VALID,144,VALID,0,
2014-10-08, 00:56:04,VALID,1008.86,VALID,0,INVALID,134.396,VALID,0,VALID,24.1617,VALID,144,VALID,0,
2014-10-08, 00:57:04,VALID,1008.82,VALID,0,INVALID,134.488,VALID,0.112112,VALID,24.1617,VALID,144,VALID,0,
2014-10-08, 00:58:04,VALID,1008.79,VALID,0,INVALID,134.488,VALID,0,VALID,24.1227,VALID,144,VALID,0,
2014-10-08, 00:59:04,VALID,1008.77,VALID,0,INVALID,134.595,VALID,0.112112,VALID,24.1032,VALID,144,VALID,0,
2014-10-08, 01:00:04,VALID,1008.78,VALID,0,INVALID,134.656,VALID,0.112112,VALID,24.1032,VALID,144,VALID,0,
2014-10-08, 01:01:04,VALID,1008.75,VALID,0,INVALID,134.724,VALID,0,VALID,24.0837,VALID,144,VALID,0,
2014-10-08, 01:02:04,VALID,1008.74,VALID,0,INVALID,134.793,VALID,0,VALID,24.0624,VALID,144,VALID,0,
2014-10-08, 01:03:04,VALID,1008.75,VALID,0,INVALID,134.793,VALID,0,VALID,24.0837,VALID,144,VALID,0,
2014-10-08, 01:04:04,VALID,1008.74,VALID,0,INVALID,134.8,VALID,0.112112,VALID,24.0643,VALID,144,VALID,0,
2014-10-08, 01:05:04,VALID,1008.77,VALID,0,INVALID,134.793,VALID,0,VALID,24.0429,VALID,144,VALID,0,
2014-10-08, 01:06:04,VALID,1008.78,VALID,0,INVALID,134.785,VALID,0.112112,VALID,24.0448,VALID,144,VALID,0,
2014-10-08, 01:07:04,VALID,1008.74,VALID,0,INVALID,134.861,VALID,0,VALID,24.004,VALID,144,VALID,0,
2014-10-08, 01:08:04,VALID,1008.72,VALID,0,INVALID,134.892,VALID,0,VALID,24.0058,VALID,144,VALID,0,
2014-10-08, 01:09:04,VALID,1008.72,VALID,0,INVALID,134.884,VALID,0,VALID,24.0058,VALID,144,VALID,0,
2014-10-08, 01:10:04,VALID,1008.7,VALID,0,INVALID,134.861,VALID,0,VALID,23.9863,VALID,144,VALID,0,
2014-10-08, 01:11:04,VALID,1008.71,VALID,0,INVALID,134.915,VALID,0,VALID,23.9455,VALID,144,VALID,0,
2014-10-08, 01:12:04,VALID,1008.7,VALID,0,INVALID,134.968,VALID,0,VALID,23.9668,VALID,144,VALID,0,
2014-10-08, 01:13:04,VALID,1008.7,VALID,0,INVALID,135.006,VALID,0,VALID,23.9473,VALID,144,VALID,0,
2014-10-08, 01:14:04,VALID,1008.7,VALID,0,INVALID,135.029,VALID,0,VALID,23.9668,VALID,144,VALID,0,
2014-10-08, 01:15:04,VALID,1008.69,VALID,0,INVALID,135.052,VALID,0.112112,VALID,23.9473,VALID,144,VALID,0,
2014-10-08, 01:16:04,VALID,1008.71,VALID,0,INVALID,135.037,VALID,0,VALID,23.9668,VALID,144,VALID,0,
2014-10-08, 01:17:04,VALID,1008.72,VALID,0,INVALID,135.006,VALID,0,VALID,23.965,VALID,144,VALID,0,
2014-10-08, 01:18:04,VALID,1008.72,VALID,0,INVALID,134.93,VALID,0,VALID,23.9863,VALID,144,VALID,0,
2014-10-08, 01:19:04,VALID,1008.73,VALID,0,INVALID,134.953,VALID,0.112112,VALID,23.9668,VALID,144,VALID,0,
2014-10-08, 01:20:04,VALID,1008.73,VALID,0,INVALID,134.938,VALID,0.112112,VALID,23.965,VALID,144,VALID,0,
2014-10-08, 01:21:04,VALID,1008.73,VALID,0,INVALID,134.892,VALID,0.112112,VALID,23.9863,VALID,144,VALID,0,
2014-10-08, 01:22:04,VALID,1008.74,VALID,0,INVALID,134.884,VALID,0,VALID,23.9863,VALID,144,VALID,0,
2014-10-08, 01:23:04,VALID,1008.72,VALID,0,INVALID,134.869,VALID,0,VALID,23.9863,VALID,144,VALID,0,
2014-10-08, 01:24:04,VALID,1008.7,VALID,0,INVALID,134.953,VALID,0,VALID,23.9473,VALID,144,VALID,0,
2014-10-08, 01:25:04,VALID,1008.71,VALID,0,INVALID,135.022,VALID,0,VALID,23.9084,VALID,144,VALID,0,
2014-10-08, 01:26:04,VALID,1008.68,VALID,0,INVALID,135.083,VALID,0,VALID,23.8871,VALID,144,VALID,0,
2014-10-08, 01:27:04,VALID,1008.69,VALID,0,INVALID,135.067,VALID,0,VALID,23.8889,VALID,144,VALID,0,
2014-10-08, 01:28:04,VALID,1008.71,VALID,0,INVALID,135.006,VALID,0,VALID,23.8889,VALID,144,VALID,0,
2014-10-08, 01:29:04,VALID,1008.69,VALID,0,INVALID,135.029,VALID,0.112112,VALID,23.8889,VALID,144,VALID,0,
2014-10-08, 01:30:04,VALID,1008.68,VALID,0,INVALID,135.022,VALID,0.112112,VALID,23.8694,VALID,144,VALID,0,
2014-10-08, 01:31:04,VALID,1008.69,VALID,0,INVALID,135.06,VALID,0,VALID,23.8694,VALID,144,VALID,0,
2014-10-08, 01:32:04,VALID,1008.65,VALID,0,INVALID,135.037,VALID,0,VALID,23.8499,VALID,144,VALID,0,
2014-10-08, 01:33:04,VALID,1008.64,VALID,0,INVALID,134.991,VALID,0,VALID,23.8499,VALID,144,VALID,0,
2014-10-08, 01:34:04,VALID,1008.64,VALID,0,INVALID,134.968,VALID,0,VALID,23.8499,VALID,144,VALID,0,
2014-10-08, 01:35:04,VALID,1008.63,VALID,0,INVALID,134.938,VALID,0,VALID,23.8286,VALID,144,VALID,0,
2014-10-08, 01:36:04,VALID,1008.61,VALID,0,INVALID,134.953,VALID,0,VALID,23.8304,VALID,144,VALID,0,
2014-10-08, 01:37:04,VALID,1008.61,VALID,0,INVALID,134.93,VALID,0.112112,VALID,23.8091,VALID,144,VALID,0,
2014-10-08, 01:38:04,VALID,1008.61,VALID,0,INVALID,134.93,VALID,0,VALID,23.7896,VALID,144,VALID,0,
2014-10-08, 01:39:04,VALID,1008.59,VALID,0,INVALID,134.816,VALID,0.112112,VALID,23.8304,VALID,144,VALID,0,
2014-10-08, 01:40:04,VALID,1008.59,VALID,0,INVALID,134.785,VALID,0,VALID,23.8304,VALID,144,VALID,0,
2014-10-08, 01:41:04,VALID,1008.58,VALID,0,INVALID,134.747,VALID,0,VALID,23.8091,VALID,144,VALID,0,
2014-10-08, 01:42:04,VALID,1008.57,VALID,0,INVALID,134.595,VALID,0.112112,VALID,23.8304,VALID,144,VALID,0,
2014-10-08, 01:43:04,VALID,1008.57,VALID,0,INVALID,134.564,VALID,0.112112,VALID,23.8499,VALID,144,VALID,0,
2014-10-08, 01:44:04,VALID,1008.54,VALID,0,INVALID,134.587,VALID,0.112112,VALID,23.8109,VALID,144,VALID,0,
2014-10-08, 01:45:04,VALID,1008.55,VALID,0,INVALID,134.633,VALID,0,VALID,23.7914,VALID,144,VALID,0,
2014-10-08, 01:46:04,VALID,1008.55,VALID,0,INVALID,134.701,VALID,0.112112,VALID,23.772,VALID,144,VALID,0,
2014-10-08, 01:47:04,VALID,1008.55,VALID,0,INVALID,134.778,VALID,0,VALID,23.7312,VALID,144,VALID,0,
2014-10-08, 01:48:04,VALID,1008.53,VALID,0,INVALID,134.846,VALID,0,VALID,23.7135,VALID,144,VALID,0,
2014-10-08, 01:49:04,VALID,1008.53,VALID,0,INVALID,134.854,VALID,0,VALID,23.7135,VALID,144,VALID,0,
2014-10-08, 01:50:04,VALID,1008.53,VALID,0,INVALID,134.861,VALID,0,VALID,23.6727,VALID,144,VALID,0,
2014-10-08, 01:51:04,VALID,1008.52,VALID,0,INVALID,134.846,VALID,0,VALID,23.694,VALID,144,VALID,0,
2014-10-08, 01:52:04,VALID,1008.47,VALID,0,INVALID,134.8,VALID,0,VALID,23.694,VALID,144,VALID,0,
2014-10-08, 01:53:04,VALID,1008.48,VALID,0,INVALID,134.762,VALID,0.112112,VALID,23.6745,VALID,144,VALID,0,
2014-10-08, 01:54:04,VALID,1008.44,VALID,0,INVALID,134.739,VALID,0,VALID,23.6532,VALID,144,VALID,0,
2014-10-08, 01:55:04,VALID,1008.43,VALID,0,INVALID,134.648,VALID,0,VALID,23.694,VALID,144,VALID,0,
2014-10-08, 01:56:04,VALID,1008.41,VALID,0,INVALID,134.572,VALID,0,VALID,23.6745,VALID,144,VALID,0,
2014-10-08, 01:57:04,VALID,1008.41,VALID,0,INVALID,134.534,VALID,0,VALID,23.6727,VALID,144,VALID,0,
2014-10-08, 01:58:04,VALID,1008.4,VALID,0,INVALID,134.434,VALID,0.112112,VALID,23.6922,VALID,144,VALID,0,
2014-10-08, 01:59:04,VALID,1008.38,VALID,0,INVALID,134.434,VALID,0.112112,VALID,23.6922,VALID,144,VALID,0,
2014-10-08, 02:00:04,VALID,1008.38,VALID,0,INVALID,134.495,VALID,0.224224,VALID,23.6727,VALID,144,VALID,0,
2014-10-08, 02:01:04,VALID,1008.36,VALID,0,INVALID,134.488,VALID,0.112112,VALID,23.6532,VALID,144,VALID,0,
2014-10-08, 02:02:04,VALID,1008.37,VALID,0,INVALID,134.45,VALID,0.112112,VALID,23.6532,VALID,144,VALID,0,
2014-10-08, 02:03:04,VALID,1008.34,VALID,0,INVALID,134.434,VALID,0.224224,VALID,23.6125,VALID,144,VALID,0,
2014-10-08, 02:04:04,VALID,1008.39,VALID,0,INVALID,134.465,VALID,0.224224,VALID,23.6125,VALID,144,VALID,0,
2014-10-08, 02:05:04,VALID,1008.38,VALID,0,INVALID,134.495,VALID,0.224224,VALID,23.6338,VALID,144,VALID,0,
2014-10-08, 02:06:04,VALID,1008.37,VALID,0,INVALID,134.412,VALID,0.224224,VALID,23.6125,VALID,144,VALID,0,
2014-10-08, 02:07:04,VALID,1008.38,VALID,0,INVALID,134.312,VALID,0.112112,VALID,23.6338,VALID,144,VALID,0,
2014-10-08, 02:08:04,VALID,1008.4,VALID,0,INVALID,134.244,VALID,0.224224,VALID,23.6143,VALID,144,VALID,0,
2014-10-08, 02:09:04,VALID,1008.4,VALID,0,INVALID,134.32,VALID,0.112112,VALID,23.5735,VALID,144,VALID,0,
2014-10-08, 02:10:04,VALID,1008.41,VALID,0,INVALID,134.32,VALID,0.112112,VALID,23.5735,VALID,144,VALID,0,
2014-10-08, 02:11:04,VALID,1008.39,VALID,0,INVALID,134.328,VALID,0.224224,VALID,23.5753,VALID,144,VALID,0,
2014-10-08, 02:12:04,VALID,1008.36,VALID,0,INVALID,134.328,VALID,0.224224,VALID,23.554,VALID,144,VALID,0,
2014-10-08, 02:13:04,VALID,1008.36,VALID,0,INVALID,134.251,VALID,0,VALID,23.5771,VALID,144,VALID,0,
2014-10-08, 02:14:04,VALID,1008.34,VALID,0,INVALID,134.251,VALID,0.112112,VALID,23.5558,VALID,144,VALID,0,
2014-10-08, 02:15:04,VALID,1008.3,VALID,0,INVALID,134.19,VALID,0,VALID,23.5576,VALID,144,VALID,0,
2014-10-08, 02:16:04,VALID,1008.34,VALID,0,INVALID,134.175,VALID,0,VALID,23.5576,VALID,144,VALID,0,
2014-10-08, 02:17:04,VALID,1008.35,VALID,0,INVALID,134.206,VALID,0,VALID,23.5381,VALID,144,VALID,0,
2014-10-08, 02:18:04,VALID,1008.34,VALID,0,INVALID,134.198,VALID,0,VALID,23.5576,VALID,144,VALID,0,
2014-10-08, 02:19:04,VALID,1008.34,VALID,0,INVALID,134.061,VALID,0.112112,VALID,23.5576,VALID,144,VALID,0,
2014-10-08, 02:20:04,VALID,1008.35,VALID,0,INVALID,134.053,VALID,0,VALID,23.5169,VALID,144,VALID,0,
2014-10-08, 02:21:04,VALID,1008.36,VALID,0,INVALID,133.984,VALID,0,VALID,23.5576,VALID,144,VALID,0,
2014-10-08, 02:22:04,VALID,1008.36,VALID,0,INVALID,133.855,VALID,0,VALID,23.5558,VALID,144,VALID,0,
2014-10-08, 02:23:04,VALID,1008.41,VALID,0,INVALID,133.763,VALID,0,VALID,23.5576,VALID,144,VALID,0,
2014-10-08, 02:24:04,VALID,1008.39,VALID,0,INVALID,133.824,VALID,0,VALID,23.5576,VALID,144,VALID,0,
2014-10-08, 02:25:04,VALID,1008.38,VALID,0,INVALID,133.71,VALID,0,VALID,23.5576,VALID,144,VALID,0,
2014-10-08, 02:26:04,VALID,1008.37,VALID,0,INVALID,133.596,VALID,0,VALID,23.5771,VALID,144,VALID,0,
2014-10-08, 02:27:04,VALID,1008.36,VALID,0,INVALID,133.489,VALID,0,VALID,23.5771,VALID,144,VALID,0,
2014-10-08, 02:28:04,VALID,1008.35,VALID,0,INVALID,133.42,VALID,0.112112,VALID,23.5771,VALID,144,VALID,0,
2014-10-08, 02:29:04,VALID,1008.34,VALID,0,INVALID,133.458,VALID,0.112112,VALID,23.5771,VALID,144,VALID,0,
2014-10-08, 02:30:04,VALID,1008.34,VALID,0,INVALID,133.481,VALID,0,VALID,23.5771,VALID,144,VALID,0,
2014-10-08, 02:31:04,VALID,1008.36,VALID,0,INVALID,133.474,VALID,0,VALID,23.5363,VALID,144,VALID,0,
2014-10-08, 02:32:04,VALID,1008.34,VALID,0,INVALID,133.496,VALID,0,VALID,23.5576,VALID,144,VALID,0,
2014-10-08, 02:33:04,VALID,1008.35,VALID,0,INVALID,133.519,VALID,0,VALID,23.5576,VALID,144,VALID,0,
2014-10-08, 02:34:04,VALID,1008.37,VALID,0,INVALID,133.58,VALID,0,VALID,23.5169,VALID,144,VALID,0,
2014-10-08, 02:35:04,VALID,1008.34,VALID,0,INVALID,133.664,VALID,0.112112,VALID,23.5381,VALID,144,VALID,0,
2014-10-08, 02:36:04,VALID,1008.32,VALID,0,INVALID,133.702,VALID,0,VALID,23.4992,VALID,144,VALID,0,
2014-10-08, 02:37:04,VALID,1008.3,VALID,0,INVALID,133.71,VALID,0.112112,VALID,23.4992,VALID,144,VALID,0,
2014-10-08, 02:38:04,VALID,1008.32,VALID,0,INVALID,133.664,VALID,0,VALID,23.4992,VALID,144,VALID,0,
2014-10-08, 02:39:04,VALID,1008.29,VALID,0,INVALID,133.71,VALID,0.112112,VALID,23.4797,VALID,144,VALID,0,
2014-10-08, 02:40:04,VALID,1008.28,VALID,0,INVALID,133.702,VALID,0.112112,VALID,23.4797,VALID,144,VALID,0,
2014-10-08, 02:41:04,VALID,1008.29,VALID,0,INVALID,133.725,VALID,0.112112,VALID,23.4797,VALID,144,VALID,0,
2014-10-08, 02:42:04,VALID,1008.24,VALID,0,INVALID,133.733,VALID,0,VALID,23.4815,VALID,144,VALID,0,
2014-10-08, 02:43:04,VALID,1008.25,VALID,0,INVALID,133.626,VALID,0.112112,VALID,23.4797,VALID,144,VALID,0,
2014-10-08, 02:44:04,VALID,1008.25,VALID,0,INVALID,133.428,VALID,0.112112,VALID,23.4779,VALID,144,VALID,0,
2014-10-08, 02:45:04,VALID,1008.23,VALID,0,INVALID,133.481,VALID,0,VALID,23.4797,VALID,144,VALID,0,
2014-10-08, 02:46:04,VALID,1008.26,VALID,0,INVALID,133.626,VALID,0,VALID,23.4407,VALID,144,VALID,0,
2014-10-08, 02:47:04,VALID,1008.25,VALID,0,INVALID,133.649,VALID,0,VALID,23.4407,VALID,144,VALID,0,
2014-10-08, 02:48:04,VALID,1008.27,VALID,0,INVALID,133.748,VALID,0.112112,VALID,23.4,VALID,144,VALID,0,
2014-10-08, 02:49:04,VALID,1008.26,VALID,0,INVALID,133.809,VALID,0,VALID,23.3805,VALID,144,VALID,0,
2014-10-08, 02:50:04,VALID,1008.28,VALID,0,INVALID,133.901,VALID,0,VALID,23.3823,VALID,144,VALID,0,
2014-10-08, 02:51:04,VALID,1008.28,VALID,0,INVALID,133.916,VALID,0,VALID,23.3628,VALID,144,VALID,0,
2014-10-08, 02:52:04,VALID,1008.3,VALID,0,INVALID,133.878,VALID,0.112112,VALID,23.361,VALID,144,VALID,0,
2014-10-08, 02:53:04,VALID,1008.29,VALID,0,INVALID,133.779,VALID,0.112112,VALID,23.3415,VALID,144,VALID,0,
2014-10-08, 02:54:04,VALID,1008.32,VALID,0,INVALID,133.794,VALID,0.112112,VALID,23.3628,VALID,144,VALID,0,
2014-10-08, 02:55:04,VALID,1008.33,VALID,0,INVALID,133.786,VALID,0,VALID,23.3628,VALID,144,VALID,0,
2014-10-08, 02:56:04,VALID,1008.33,VALID,0,INVALID,133.763,VALID,0.112112,VALID,23.3628,VALID,144,VALID,0,
2014-10-08, 02:57:04,VALID,1008.33,VALID,0,INVALID,133.786,VALID,0.112112,VALID,23.3433,VALID,144,VALID,0,
2014-10-08, 02:58:04,VALID,1008.33,VALID,0,INVALID,133.862,VALID,0,VALID,23.3238,VALID,144,VALID,0,
2014-10-08, 02:59:04,VALID,1008.31,VALID,0,INVALID,133.862,VALID,0,VALID,23.3043,VALID,144,VALID,0,
2014-10-08, 03:00:04,VALID,1008.32,VALID,0,INVALID,133.908,VALID,0,VALID,23.2636,VALID,144,VALID,0,
2014-10-08, 03:01:04,VALID,1008.33,VALID,0,INVALID,133.984,VALID,0,VALID,23.2654,VALID,144,VALID,0,
2014-10-08, 03:02:04,VALID,1008.34,VALID,0,INVALID,134.084,VALID,0,VALID,23.2654,VALID,144,VALID,0,
2014-10-08, 03:03:04,VALID,1008.34,VALID,0,INVALID,134.129,VALID,0.112112,VALID,23.2654,VALID,144,VALID,0,
2014-10-08, 03:04:04,VALID,1008.37,VALID,0,INVALID,134.114,VALID,0,VALID,23.2654,VALID,144,VALID,0,
2014-10-08, 03:05:04,VALID,1008.38,VALID,0,INVALID,133.984,VALID,0,VALID,23.2654,VALID,144,VALID,0,
2014-10-08, 03:06:04,VALID,1008.38,VALID,0,INVALID,133.946,VALID,0,VALID,23.2654,VALID,144,VALID,0,
2014-10-08, 03:07:04,VALID,1008.35,VALID,0,INVALID,133.954,VALID,0,VALID,23.2654,VALID,144,VALID,0,
2014-10-08, 03:08:04,VALID,1008.35,VALID,0,INVALID,133.862,VALID,0,VALID,23.2654,VALID,144,VALID,0,
2014-10-08, 03:09:04,VALID,1008.33,VALID,0,INVALID,133.771,VALID,0,VALID,23.2636,VALID,144,VALID,0,
2014-10-08, 03:10:04,VALID,1008.36,VALID,0,INVALID,133.733,VALID,0,VALID,23.2848,VALID,144,VALID,0,
2014-10-08, 03:11:04,VALID,1008.34,VALID,0,INVALID,133.496,VALID,0,VALID,23.2831,VALID,144,VALID,0,
2014-10-08, 03:12:04,VALID,1008.35,VALID,0,INVALID,133.329,VALID,0,VALID,23.3043,VALID,144,VALID,0,
2014-10-08, 03:13:04,VALID,1008.37,VALID,0,INVALID,133.344,VALID,0,VALID,23.3043,VALID,144,VALID,0,
2014-10-08, 03:14:04,VALID,1008.35,VALID,0,INVALID,133.39,VALID,0,VALID,23.2654,VALID,144,VALID,0,
2014-10-08, 03:15:04,VALID,1008.35,VALID,0,INVALID,133.466,VALID,0,VALID,23.2654,VALID,144,VALID,0,
2014-10-08, 03:16:04,VALID,1008.37,VALID,0,INVALID,133.512,VALID,0,VALID,23.2459,VALID,144,VALID,0,
2014-10-08, 03:17:04,VALID,1008.38,VALID,0,INVALID,133.413,VALID,0,VALID,23.2671,VALID,144,VALID,0,
2014-10-08, 03:18:04,VALID,1008.38,VALID,0,INVALID,133.344,VALID,0,VALID,23.2654,VALID,144,VALID,0,
2014-10-08, 03:19:04,VALID,1008.4,VALID,0,INVALID,133.283,VALID,0,VALID,23.2459,VALID,144,VALID,0,
2014-10-08, 03:20:04,VALID,1008.39,VALID,0,INVALID,133.214,VALID,0,VALID,23.2459,VALID,144,VALID,0,
2014-10-08, 03:21:04,VALID,1008.36,VALID,0,INVALID,133.268,VALID,0,VALID,23.2264,VALID,144,VALID,0,
2014-10-08, 03:22:04,VALID,1008.33,VALID,0,INVALID,133.321,VALID,0,VALID,23.2264,VALID,144,VALID,0,
2014-10-08, 03:23:04,VALID,1008.33,VALID,0,INVALID,133.367,VALID,0,VALID,23.2069,VALID,144,VALID,0,
2014-10-08, 03:24:04,VALID,1008.37,VALID,0,INVALID,133.329,VALID,0.112112,VALID,23.1857,VALID,144,VALID,0,
2014-10-08, 03:25:04,VALID,1008.35,VALID,0,INVALID,133.252,VALID,0,VALID,23.2069,VALID,144,VALID,0,
2014-10-08, 03:26:04,VALID,1008.35,VALID,0,INVALID,133.184,VALID,0.112112,VALID,23.2051,VALID,144,VALID,0,
2014-10-08, 03:27:04,VALID,1008.34,VALID,0,INVALID,133.085,VALID,0,VALID,23.2069,VALID,144,VALID,0,
2014-10-08, 03:28:04,VALID,1008.36,VALID,0,INVALID,133.13,VALID,0,VALID,23.2069,VALID,144,VALID,0,
2014-10-08, 03:29:04,VALID,1008.39,VALID,0,INVALID,133.161,VALID,0,VALID,23.1874,VALID,144,VALID,0,
2014-10-08, 03:30:04,VALID,1008.4,VALID,0,INVALID,133.199,VALID,0,VALID,23.1874,VALID,144,VALID,0,
2014-10-08, 03:31:04,VALID,1008.39,VALID,0,INVALID,133.291,VALID,0,VALID,23.1485,VALID,144,VALID,0,
2014-10-08, 03:32:04,VALID,1008.39,VALID,0,INVALID,133.306,VALID,0,VALID,23.1679,VALID,144,VALID,0,
2014-10-08, 03:33:04,VALID,1008.42,VALID,0,INVALID,133.176,VALID,0,VALID,23.1679,VALID,144,VALID,0,
2014-10-08, 03:34:04,VALID,1008.36,VALID,0,INVALID,133.115,VALID,0,VALID,23.2069,VALID,144,VALID,0,
2014-10-08, 03:35:04,VALID,1008.38,VALID,0,INVALID,132.932,VALID,0,VALID,23.2264,VALID,144,VALID,0,
2014-10-08, 03:36:04,VALID,1008.38,VALID,0,INVALID,132.711,VALID,0,VALID,23.2459,VALID,144,VALID,0,
2014-10-08, 03:37:04,VALID,1008.38,VALID,0,INVALID,132.68,VALID,0,VALID,23.2264,VALID,144,VALID,0,
2014-10-08, 03:38:04,VALID,1008.38,VALID,0,INVALID,132.764,VALID,0,VALID,23.2264,VALID,144,VALID,0,
2014-10-08, 03:39:04,VALID,1008.36,VALID,0,INVALID,132.795,VALID,0,VALID,23.2069,VALID,144,VALID,0,
2014-10-08, 03:40:04,VALID,1008.39,VALID,0,INVALID,132.833,VALID,0,VALID,23.1874,VALID,144,VALID,0,
2014-10-08, 03:41:04,VALID,1008.4,VALID,0,INVALID,132.863,VALID,0,VALID,23.1874,VALID,144,VALID,0,
2014-10-08, 03:42:04,VALID,1008.43,VALID,0,INVALID,132.749,VALID,0,VALID,23.2069,VALID,144,VALID,0,
2014-10-08, 03:43:04,VALID,1008.46,VALID,0,INVALID,132.558,VALID,0,VALID,23.2459,VALID,144,VALID,0,
2014-10-08, 03:44:04,VALID,1008.45,VALID,0,INVALID,132.452,VALID,0,VALID,23.2459,VALID,144,VALID,0,
2014-10-08, 03:45:04,VALID,1008.51,VALID,0,INVALID,132.452,VALID,0,VALID,23.2459,VALID,144,VALID,0,
2014-10-08, 03:46:04,VALID,1008.48,VALID,0,INVALID,132.406,VALID,0,VALID,23.2246,VALID,144,VALID,0,
2014-10-08, 03:47:04,VALID,1008.48,VALID,0,INVALID,132.284,VALID,0,VALID,23.2654,VALID,144,VALID,0,
2014-10-08, 03:48:04,VALID,1008.48,VALID,0,INVALID,132.078,VALID,0,VALID,23.2848,VALID,144,VALID,0,